When you browse on this site, cookies collect data to enhance your experience and personalize the content and advertising you see.
Visit our Privacy Policy to learn more. By continuing to use the site, you agree to this use of cookies and data.
  • în România
  • Lista ţărilor
  • Pe 7 zile
  • Temperatura apei
  • Hartă satelitară
  • Meteo pe hartă
  • Widget-uri
  • user-avatar
    Intrare

    Meteo pe oră la Arnedillo

    Astăzi, 22 Aprilie, Luni

    Timp Temperatura Precipitaţii Vânt Presiune Umiditate
    00:00 +10°C° 0.1 mm 1 m/s 691 mmHg 84%
    01:00 +9°C° 0.1 mm 1 m/s 690 mmHg 86%
    02:00 +9°C° 0.1 mm 1 m/s 689 mmHg 88%
    03:00 +7°C° 0.1 mm 2 m/s 689 mmHg 91%
    04:00 +8°C° 0 mm 1 m/s 688 mmHg 90%
    05:00 +8°C° 0 mm 1 m/s 688 mmHg 89%
    06:00 +8°C° 0 mm 1 m/s 688 mmHg 89%
    07:00 +10°C° 0 mm 1 m/s 687 mmHg 80%
    08:00 +12°C° 0 mm 1 m/s 687 mmHg 71%
    09:00 +13°C° 0 mm 0 m/s 687 mmHg 62%
    10:00 +14°C° 0.1 mm 1 m/s 687 mmHg 60%
    11:00 +15°C° 0.1 mm 2 m/s 687 mmHg 59%
    12:00 +16°C° 0.1 mm 3 m/s 686 mmHg 57%
    13:00 +15°C° 0.1 mm 4 m/s 686 mmHg 57%
    14:00 +15°C° 0.1 mm 4 m/s 685 mmHg 57%
    15:00 +15°C° 0.1 mm 4 m/s 685 mmHg 56%
    16:00 +15°C° 0.1 mm 4 m/s 684 mmHg 59%
    17:00 +14°C° 0.1 mm 4 m/s 684 mmHg 61%
    18:00 +14°C° 0.1 mm 4 m/s 684 mmHg 64%
    19:00 +13°C° 0 mm 4 m/s 683 mmHg 69%
    20:00 +11°C° 0 mm 3 m/s 683 mmHg 74%
    21:00 +10°C° 0 mm 2 m/s 683 mmHg 78%
    22:00 +10°C° 0 mm 2 m/s 683 mmHg 79%
    23:00 +9°C° 0 mm 2 m/s 683 mmHg 80%

    Mâine, 23 Aprilie, Marţi

    Timp Temperatura Precipitaţii Vânt Presiune Umiditate
    00:00 +9°C° 0 mm 2 m/s 683 mmHg 81%
    01:00 +9°C° 0 mm 2 m/s 682 mmHg 84%
    02:00 +8°C° 0 mm 2 m/s 682 mmHg 86%
    03:00 +8°C° 0 mm 2 m/s 682 mmHg 88%
    04:00 +8°C° 0 mm 2 m/s 682 mmHg 86%
    05:00 +8°C° 0 mm 2 m/s 682 mmHg 85%
    06:00 +8°C° 0 mm 3 m/s 682 mmHg 83%
    07:00 +9°C° 0.1 mm 3 m/s 682 mmHg 77%
    08:00 +10°C° 0.1 mm 4 m/s 682 mmHg 71%
    09:00 +11°C° 0.1 mm 4 m/s 683 mmHg 65%
    10:00 +12°C° 0.1 mm 5 m/s 683 mmHg 62%
    11:00 +13°C° 0.1 mm 5 m/s 683 mmHg 59%
    12:00 +14°C° 0.1 mm 5 m/s 684 mmHg 56%
    13:00 +14°C° 0.4 mm 5 m/s 683 mmHg 56%
    14:00 +13°C° 0.4 mm 6 m/s 683 mmHg 55%
    15:00 +12°C° 0.4 mm 7 m/s 683 mmHg 55%
    16:00 +12°C° 0 mm 5 m/s 683 mmHg 56%
    17:00 +11°C° 0 mm 4 m/s 684 mmHg 57%
    18:00 +11°C° 0 mm 3 m/s 684 mmHg 59%
    19:00 +10°C° 0.1 mm 3 m/s 684 mmHg 62%
    20:00 +9°C° 0.1 mm 2 m/s 685 mmHg 65%
    21:00 +8°C° 0.1 mm 2 m/s 686 mmHg 68%
    22:00 +7°C° 0.1 mm 2 m/s 686 mmHg 71%
    23:00 +7°C° 0.1 mm 3 m/s 686 mmHg 73%

    Poimâine, 24 Aprilie, Miercuri

    Timp Temperatura Precipitaţii Vânt Presiune Umiditate
    00:00 +5°C° 0.1 mm 3 m/s 686 mmHg 76%
    01:00 +4°C° 0 mm 3 m/s 686 mmHg 75%
    02:00 +4°C° 0 mm 3 m/s 686 mmHg 75%
    03:00 +3°C° 0 mm 3 m/s 686 mmHg 74%
    04:00 +3°C° 0 mm 3 m/s 686 mmHg 74%
    05:00 +3°C° 0 mm 3 m/s 687 mmHg 74%
    06:00 +4°C° 0 mm 2 m/s 687 mmHg 74%
    07:00 +5°C° 0 mm 3 m/s 687 mmHg 67%
    08:00 +6°C° 0 mm 4 m/s 688 mmHg 60%
    09:00 +8°C° 0 mm 4 m/s 688 mmHg 54%
    10:00 +9°C° 0 mm 5 m/s 688 mmHg 47%
    11:00 +10°C° 0 mm 6 m/s 688 mmHg 41%
    12:00 +12°C° 0 mm 7 m/s 688 mmHg 35%
    13:00 +11°C° 0 mm 8 m/s 688 mmHg 41%
    14:00 +9°C° 0 mm 10 m/s 687 mmHg 46%
    15:00 +9°C° 0 mm 11 m/s 687 mmHg 51%
    16:00 +9°C° 0 mm 10 m/s 687 mmHg 55%
    17:00 +10°C° 0 mm 9 m/s 687 mmHg 59%
    18:00 +10°C° 0 mm 8 m/s 687 mmHg 63%
    19:00 +10°C° 0.2 mm 7 m/s 688 mmHg 68%
    20:00 +9°C° 0.2 mm 6 m/s 688 mmHg 73%
    21:00 +8°C° 0.2 mm 5 m/s 689 mmHg 78%
    22:00 +8°C° 1.2 mm 4 m/s 689 mmHg 82%
    23:00 +8°C° 1.2 mm 4 m/s 689 mmHg 86%

    25 Aprilie, Joi

    Timp Temperatura Precipitaţii Vânt Presiune Umiditate
    00:00 +9°C° 1.2 mm 3 m/s 688 mmHg 89%
    01:00 +9°C° 0.8 mm 3 m/s 689 mmHg 89%
    02:00 +9°C° 0.8 mm 3 m/s 689 mmHg 88%
    03:00 +9°C° 0.8 mm 3 m/s 689 mmHg 87%
    04:00 +9°C° 0.5 mm 3 m/s 689 mmHg 87%
    05:00 +8°C° 0.5 mm 2 m/s 690 mmHg 86%
    06:00 +8°C° 0.5 mm 2 m/s 690 mmHg 86%
    07:00 +8°C° 0.2 mm 4 m/s 690 mmHg 75%
    08:00 +9°C° 0.2 mm 6 m/s 691 mmHg 64%
    09:00 +10°C° 0.2 mm 7 m/s 692 mmHg 53%
    10:00 +10°C° 0.1 mm 7 m/s 692 mmHg 54%
    11:00 +10°C° 0.1 mm 8 m/s 692 mmHg 54%
    12:00 +10°C° 0.1 mm 8 m/s 693 mmHg 55%
    13:00 +11°C° 0.1 mm 8 m/s 693 mmHg 53%
    14:00 +11°C° 0.1 mm 9 m/s 693 mmHg 51%
    15:00 +11°C° 0.1 mm 9 m/s 694 mmHg 50%
    16:00 +10°C° 0.1 mm 9 m/s 694 mmHg 53%
    17:00 +9°C° 0.1 mm 8 m/s 694 mmHg 56%
    18:00 +9°C° 0.1 mm 7 m/s 695 mmHg 59%
    19:00 +8°C° 0 mm 6 m/s 696 mmHg 63%
    20:00 +7°C° 0 mm 5 m/s 696 mmHg 67%
    21:00 +6°C° 0 mm 4 m/s 697 mmHg 71%
    22:00 +5°C° 0 mm 4 m/s 698 mmHg 73%
    23:00 +5°C° 0 mm 4 m/s 698 mmHg 75%

    26 Aprilie, Vineri

    Timp Temperatura Precipitaţii Vânt Presiune Umiditate
    00:00 +4°C° 0 mm 3 m/s 699 mmHg 77%
    01:00 +4°C° 0 mm 3 m/s 699 mmHg 78%
    02:00 +3°C° 0 mm 3 m/s 700 mmHg 79%
    03:00 +4°C° 0 mm 2 m/s 700 mmHg 80%
    04:00 +4°C° 0 mm 2 m/s 700 mmHg 80%
    05:00 +4°C° 0 mm 2 m/s 701 mmHg 81%
    06:00 +4°C° 0 mm 2 m/s 702 mmHg 81%
    07:00 +6°C° 0 mm 2 m/s 702 mmHg 71%
    08:00 +8°C° 0 mm 2 m/s 703 mmHg 61%
    09:00 +10°C° 0 mm 2 m/s 703 mmHg 51%
    10:00 +12°C° 0 mm 2 m/s 703 mmHg 48%
    11:00 +13°C° 0 mm 2 m/s 704 mmHg 44%
    12:00 +15°C° 0 mm 2 m/s 704 mmHg 41%
    13:00 +15°C° 0 mm 2 m/s 704 mmHg 41%
    14:00 +16°C° 0 mm 2 m/s 703 mmHg 40%
    15:00 +17°C° 0 mm 2 m/s 703 mmHg 40%
    16:00 +16°C° 0 mm 2 m/s 703 mmHg 43%
    17:00 +15°C° 0 mm 2 m/s 703 mmHg 47%
    18:00 +15°C° 0 mm 2 m/s 703 mmHg 51%
    19:00 +13°C° 0 mm 2 m/s 703 mmHg 59%
    20:00 +11°C° 0 mm 1 m/s 703 mmHg 66%
    21:00 +8°C° 0 mm 0 m/s 703 mmHg 73%
    22:00 +9°C° 0 mm 1 m/s 703 mmHg 75%
    23:00 +8°C° 0 mm 1 m/s 703 mmHg 77%

    27 Aprilie, Sâmbătă

    Timp Temperatura Precipitaţii Vânt Presiune Umiditate
    00:00 +8°C° 0 mm 1 m/s 703 mmHg 79%
    01:00 +8°C° 0 mm 1 m/s 703 mmHg 78%
    02:00 +8°C° 0 mm 1 m/s 703 mmHg 78%
    03:00 +8°C° 0 mm 1 m/s 703 mmHg 78%
    04:00 +8°C° 0 mm 1 m/s 703 mmHg 76%
    05:00 +8°C° 0 mm 1 m/s 703 mmHg 75%
    06:00 +9°C° 0 mm 1 m/s 703 mmHg 73%
    07:00 +11°C° 0 mm 1 m/s 704 mmHg 65%
    08:00 +13°C° 0 mm 1 m/s 704 mmHg 58%
    09:00 +15°C° 0 mm 1 m/s 704 mmHg 50%
    10:00 +18°C° 0 mm 1 m/s 704 mmHg 47%
    11:00 +19°C° 0 mm 1 m/s 704 mmHg 44%
    12:00 +21°C° 0 mm 1 m/s 704 mmHg 41%
    13:00 +20°C° 0 mm 2 m/s 704 mmHg 40%
    14:00 +21°C° 0 mm 2 m/s 704 mmHg 40%
    15:00 +21°C° 0 mm 3 m/s 704 mmHg 40%
    16:00 +20°C° 0 mm 2 m/s 704 mmHg 44%
    17:00 +20°C° 0 mm 2 m/s 704 mmHg 48%
    18:00 +19°C° 0 mm 2 m/s 704 mmHg 52%
    19:00 +17°C° 0 mm 2 m/s 704 mmHg 59%
    20:00 +15°C° 0 mm 1 m/s 704 mmHg 66%
    21:00 +13°C° 0 mm 1 m/s 704 mmHg 73%
    22:00 +13°C° 0 mm 1 m/s 704 mmHg 76%
    23:00 +12°C° 0 mm 1 m/s 704 mmHg 78%
    Arată mai mult